Weather History for Lakeland Region, FL

Change the Weather History Date:

Saturday, May 4, 2013

  Actual Average Record
Temperature  
Mean Temperature 73 °F -  
Max Temperature 80 °F 83 °F 95 °F (2002)
Min Temperature 66 °F 63 °F 55 °F (2014)
Cooling Degree Days 8    
Growing Degree Days 23 (Base 50)    
Moisture  
Dew Point 64 °F    
Average Humidity 80    
Maximum Humidity 94    
Minimum Humidity 51    
Precipitation  
Precipitation 0.00 in - - ()
Sea Level Pressure  
Sea Level Pressure 29.74 in    
Wind  
Wind Speed 7 mph (WNW)    
Max Wind Speed 16 mph    
Max Gust Speed 23 mph    
Visibility 10 miles    
Events      
Averages and records for this station are not official NWS values.
T = Trace of Precipitation, MM = Missing Value Source: NWS Daily Summary

Daily Weather History Graph

Daily Weather History Graph

Search for Another Location

Airport:

Trip Planner

Search our weather history database for the weather conditions in past years. The results will help you decide how hot, cold, wet, or windy it might be!

Date:

Astronomy

May. 04, 2013 Rise Set
Actual Time 6:45 AM EDT 8:04 PM EDT
Civil Twilight 6:20 AM EDT 8:29 PM EDT
Nautical Twilight 5:51 AM EDT 8:59 PM EDT
Astronomical Twilight 5:20 AM EDT 9:29 PM EDT
Moon 3:16 AM EDT (5/4) 3:25 PM EDT (5/4)
Length of Visible Light 14h 08m
Length of Day
13h 18m
Waning Crescent, 27% of the Moon is Illuminated
May 4
Waning Crescent
May 9
New
May 18
First Quarter
May 25
Full
May 31
Last Quarter

Hourly Weather History & Observations

Time (EDT) Temp. Heat Index Dew Point Humidity Pressure Visibility Wind Dir Wind Speed Gust Speed Precip Events Conditions
12:15 AM 68.0 °F - 62.6 °F 83% 29.75 in 10.0 mi NW 6.9 mph - N/A   Overcast
12:35 AM 68.0 °F - 62.6 °F 83% 29.75 in 10.0 mi NW 6.9 mph - N/A   Overcast
12:55 AM 68.0 °F - 62.6 °F 83% 29.74 in 10.0 mi WNW 6.9 mph - N/A   Overcast
1:15 AM 68.0 °F - 62.6 °F 83% 29.74 in 10.0 mi WNW 8.1 mph - N/A   Overcast
1:35 AM 68.0 °F - 64.4 °F 88% 29.73 in 10.0 mi NW 5.8 mph - N/A   Overcast
1:55 AM 68.0 °F - 64.4 °F 88% 29.73 in 10.0 mi NW 5.8 mph - N/A   Overcast
2:15 AM 68.0 °F - 64.4 °F 88% 29.72 in 10.0 mi WNW 6.9 mph - N/A   Overcast
2:35 AM 68.0 °F - 64.4 °F 88% 29.71 in 10.0 mi WNW 9.2 mph - N/A   Overcast
2:55 AM 68.0 °F - 64.4 °F 88% 29.71 in 10.0 mi WNW 6.9 mph - N/A   Overcast
3:15 AM 68.0 °F - 64.4 °F 88% 29.70 in 7.0 mi WNW 6.9 mph - N/A   Overcast
3:35 AM 68.0 °F - 64.4 °F 88% 29.70 in 7.0 mi WNW 6.9 mph - N/A   Overcast
3:55 AM 68.0 °F - 64.4 °F 88% 29.69 in 7.0 mi NW 6.9 mph - N/A   Overcast
4:15 AM 68.0 °F - 64.4 °F 88% 29.69 in 7.0 mi WNW 6.9 mph - N/A   Overcast
4:35 AM 68.0 °F - 64.4 °F 88% 29.69 in 7.0 mi NW 6.9 mph - N/A   Overcast
4:55 AM 68.0 °F - 64.4 °F 88% 29.69 in 7.0 mi NNW 4.6 mph - N/A   Overcast
5:15 AM 68.0 °F - 64.4 °F 88% 29.70 in 10.0 mi NNW 4.6 mph - N/A   Overcast
5:35 AM 68.0 °F - 64.4 °F 88% 29.70 in 10.0 mi NW 4.6 mph - N/A   Overcast
5:55 AM 68.0 °F - 64.4 °F 88% 29.71 in 10.0 mi North 4.6 mph - N/A   Overcast
6:15 AM 68.0 °F - 64.4 °F 88% 29.71 in 5.0 mi WNW 5.8 mph - N/A   Overcast
6:35 AM 66.2 °F - 64.4 °F 94% 29.72 in 4.0 mi WNW 6.9 mph - N/A   Overcast
6:51 AM 66.2 °F - 64.4 °F 94% 29.73 in 4.0 mi WNW 6.9 mph - N/A   Overcast
7:50 AM 66.2 °F - 64.4 °F 94% 29.74 in 4.0 mi WNW 5.8 mph - N/A   Overcast
8:58 AM 68.0 °F - 66.2 °F 94% 29.75 in 5.0 mi West 8.1 mph - N/A   Overcast
9:50 AM 71.6 °F - 66.2 °F 83% 29.75 in 12.0 mi West 10.4 mph - N/A   Mostly Cloudy
10:50 AM 75.2 °F - 64.4 °F 69% 29.76 in 15.0 mi West 11.5 mph 17.3 mph N/A   Mostly Cloudy
11:51 AM 78.8 °F - 62.6 °F 57% 29.76 in 20.0 mi WNW 12.7 mph 18.4 mph N/A   Mostly Cloudy
12:50 PM 78.8 °F - 62.6 °F 57% 29.75 in 20.0 mi West 11.5 mph 17.3 mph N/A   Mostly Cloudy
1:50 PM 80.6 °F 81.5 °F 60.8 °F 51% 29.74 in 20.0 mi West 9.2 mph - N/A   Mostly Cloudy
2:50 PM 80.6 °F 81.8 °F 62.6 °F 54% 29.73 in 20.0 mi West 16.1 mph 23.0 mph N/A   Mostly Cloudy
3:50 PM 80.6 °F 81.8 °F 62.6 °F 54% 29.73 in 20.0 mi West 15.0 mph 23.0 mph N/A   Mostly Cloudy
4:50 PM 78.8 °F - 64.4 °F 61% 29.73 in 15.0 mi West 10.4 mph 16.1 mph N/A   Mostly Cloudy
5:50 PM 80.6 °F 82.3 °F 64.4 °F 58% 29.74 in 15.0 mi West 11.5 mph - N/A   Mostly Cloudy
7:50 PM 75.2 °F - 64.4 °F 69% 29.73 in 10.0 mi WSW 6.9 mph - N/A   Scattered Clouds
8:50 PM 73.4 °F - 64.4 °F 73% 29.76 in 10.0 mi WSW 6.9 mph - N/A   Clear
9:50 PM 71.6 °F - 64.4 °F 78% 29.78 in 10.0 mi West 4.6 mph - N/A   Clear
10:55 PM 69.8 °F - 62.6 °F 78% 29.81 in 10.0 mi West 8.1 mph - N/A   Clear
11:15 PM 68.0 °F - 62.6 °F 83% 29.82 in 10.0 mi West 6.9 mph - N/A   Clear
11:35 PM 68.0 °F - 62.6 °F 83% 29.82 in 10.0 mi West 5.8 mph - N/A   Clear
11:55 PM 68.0 °F - 62.6 °F 83% 29.82 in 10.0 mi WNW 4.6 mph - N/A   Clear